Location: DaVinci Observatory
(43.1080°N, 78.6453°W)
Time: 11:28:24
(UTC-04:00)

Vanguard 3 - All Passes

Search period start: 18 June 2018 00:00
Search period end: 28 June 2018 00:00
Orbit: 508 x 3264 km, 33.3° (Epoch: 17 June)

Date Brightness Start Highest point End Pass type
(mag) Time Alt. Az. Time Alt. Az. Time Alt. Az.
18 Jun - 05:02:53 10° SW 05:08:57 36° SSE 05:18:57 10° E daylight
18 Jun - 07:12:39 10° WSW 07:21:09 52° S 07:35:49 10° ESE daylight
18 Jun - 09:24:01 10° W 09:34:58 43° SSW 09:51:32 10° SE daylight
18 Jun - 11:38:06 10° W 11:49:16 24° SW 12:02:55 10° S daylight
19 Jun - 03:51:11 10° SSW 03:55:36 22° SE 04:01:57 10° E visible
19 Jun - 05:59:46 10° WSW 06:06:42 46° SSE 06:18:46 10° ESE daylight
19 Jun - 08:10:20 10° W 08:19:41 48° S 08:35:09 10° ESE daylight
19 Jun - 10:22:43 10° W 10:33:45 32° SSW 10:48:56 10° SSE daylight
19 Jun - 12:41:46 10° WSW 12:47:45 13° SW 12:54:12 10° SSW daylight
20 Jun - 04:47:18 10° SW 04:52:52 35° SSE 05:01:57 10° E visible
20 Jun - 06:57:06 10° WSW 07:04:53 49° S 07:18:21 10° ESE daylight
20 Jun - 09:08:25 10° W 09:18:22 39° SSW 09:33:37 10° SE daylight
20 Jun - 11:22:55 10° WSW 11:32:24 20° SW 11:44:04 10° S daylight
21 Jun - 03:35:29 10° SSW 03:39:33 22° SSE 03:45:21 10° ESE visible
21 Jun - 05:44:16 10° WSW 05:50:37 44° S 06:01:34 10° ESE daylight
21 Jun - 07:54:48 10° WSW 08:03:19 43° S 08:17:28 10° SE daylight
21 Jun - 10:07:17 10° WSW 10:17:04 27° SSW 10:30:34 10° SSE daylight
22 Jun - 04:31:49 10° SW 04:36:53 35° SSE 04:45:03 10° ESE visible
22 Jun - 06:41:38 10° WSW 06:48:44 45° S 07:00:55 10° ESE daylight
22 Jun - 08:52:58 10° W 09:01:54 33° SSW 09:15:34 10° SE daylight
22 Jun - 11:08:18 10° WSW 11:15:43 16° SW 11:24:36 10° S daylight
23 Jun - 03:19:51 10° SSW 03:23:36 22° SSE 03:28:50 10° ESE visible
23 Jun - 05:28:51 10° WSW 05:34:37 42° S 05:44:26 10° ESE daylight
23 Jun - 07:39:22 10° WSW 07:47:04 38° SSW 07:59:43 10° SE daylight
23 Jun - 09:52:09 10° WSW 10:00:32 22° SSW 10:11:54 10° SSE daylight
24 Jun - 02:09:44 10° SSE 02:10:39 10° SE 02:11:36 10° SE visible
24 Jun - 04:16:21 10° SW 04:20:58 33° SSE 04:28:16 10° ESE visible
24 Jun - 06:26:15 10° WSW 06:32:40 40° S 06:43:31 10° ESE daylight
24 Jun - 08:37:41 10° WSW 08:45:34 28° SSW 08:57:22 10° SSE daylight
24 Jun - 10:55:03 10° SW 10:59:09 12° SW 11:03:45 10° SSW daylight
25 Jun - 03:04:15 10° SSW 03:07:44 22° SSE 03:12:26 10° ESE visible
25 Jun - 05:13:27 10° WSW 05:18:42 38° S 05:27:23 10° ESE daylight
25 Jun - 07:24:03 10° WSW 07:30:56 33° SSW 07:41:57 10° SE daylight
25 Jun - 09:37:25 10° WSW 09:44:08 18° SSW 09:52:50 10° S daylight
26 Jun - 01:53:27 10° SSE 01:54:43 11° SSE 01:56:05 10° SE visible
26 Jun - 04:00:55 10° SW 04:05:09 32° SSE 04:11:35 10° ESE visible
26 Jun - 06:10:56 10° WSW 06:16:42 35° S 06:26:09 10° SE daylight
26 Jun - 08:22:37 10° WSW 08:29:21 23° SSW 08:39:01 10° SSE daylight
27 Jun - 02:48:41 10° SSW 02:51:55 22° SSE 02:56:09 10° ESE visible
27 Jun - 04:58:06 10° WSW 05:02:52 34° S 05:10:25 10° ESE visible
27 Jun - 07:08:52 10° WSW 07:14:54 27° SSW 07:24:08 10° SE daylight
27 Jun - 09:23:34 10° SW 09:27:52 13° SSW 09:32:57 10° S daylight
